Tracking 30743 objects as of 22-Jun-2025
HD Live streaming from Space Station
objects crossing your sky now

SL-8 DEB

Track SL-8 DEB now!
10-day predictions


NORAD ID: 29282
Int'l Code: 1981-120L
Perigee: 1,653.4 km
Apogee: 1,687.2 km
Inclination: 83.0 °
Period: 119.6 minutes
Semi major axis: 8041 km
RCS: 0.0115 m2 (small)
Launch date: December 17, 1981
Source: Commonwealth of Independent States (former USSR) (CIS)
Launch site: PLESETSK MISSILE AND SPACE COMPLEX (PKMTR)

Note: This is SATELLITE DEBRIS
Your satellite tracking list
Your tracking list is empty




NASA's NSSDC Master Catalog

Two Line Element Set (TLE):
1 29282U 81120L   25173.13930464 -.00000039  00000-0 -57638-3 0  9999
2 29282  82.9594 305.9092 0021032  97.9613  77.9236 12.03963973997263
Source of the keplerian elements: AFSPC